Home   Weather   Cocoa Beach   Past weeks

Flag for USA Past Weather in Cocoa Beach, Florida, USA — Yesterday and Last 2 Weeks

Now
83 °F

Sunny.


Feels Like: 87 °F
Forecast: 75 / 86 °F
Wind: 12 mph from Southeast

Location: Cocoa / Patrick Air Force Base

Current Time: Oct 1, 2016 at 6:31:08 PM

Latest Report: Oct 1, 2016 at 5:58 PM


Visibility: 10 mi

Pressure: 29.98 "Hg

Humidity: 64%

Dew Point: 70 °F

Location of Cocoa BeachLocation

Past Weather in Cocoa Beach — Graph

°F

Cocoa Beach Temperature Yesterday

Maximum temperature yesterday: 87 °F (at 2:58 PM)
Minimum temperature yesterday: 76 °F (at 7:58 PM)
Average temperature yesterday: 81 °F

High & Low Weather Summary for the Past Weeks

 TemperatureHumidityPressure
High90 °F (Sep 29, 2:58 PM)100% (Sep 17, 7:03 AM)30.07 "Hg (Sep 17, 7:03 AM)
Low74 °F (Sep 28, 4:58 AM)54% (Sep 29, 2:58 PM)29.89 "Hg (Sep 27, 5:58 PM)
Average81 °F81%30.00 "Hg
* Reported Sep 16 4:58 PM — Oct 1 4:58 PM, Cocoa Beach, Weather by CustomWeather, © 2016

Note: Actual official high and low records may vary slightly from our data, if they occured in-between our weather recording intervals... More about our weather records

Advertising

Cocoa Beach Weather History for the Previous 24 Hours

Scroll right to see more
 ConditionsComfort  
Time TempWeatherWind HumidityBarometerVisibility
4:58 PM
Sat, Oct 1
85 °FSunny.10 mph70%29.99 "Hg10 mi
3:58 PM85 °FSunny.8 mph70%29.98 "Hg10 mi
2:58 PM85 °FSunny.10 mph70%30.00 "Hg10 mi
1:58 PM86 °FSunny.9 mph72%30.03 "Hg10 mi
12:58 PM85 °FSunny.8 mph72%30.05 "Hg10 mi
11:58 AM84 °FSunny.7 mph74%30.07 "Hg10 mi
10:58 AM82 °FSunny.5 mph76%30.06 "Hg10 mi
9:58 AM82 °FSunny.1 mph76%30.07 "Hg10 mi
8:58 AM82 °FSunny.No wind75%30.06 "Hg10 mi
7:58 AM77 °FSunny.No wind84%30.04 "Hg10 mi
6:58 AM78 °FClear.No wind85%30.03 "Hg10 mi
5:58 AM76 °FClear.5 mph88%30.02 "Hg10 mi
4:58 AM76 °FClear.5 mph90%30.02 "Hg10 mi
3:58 AM76 °FPassing clouds.5 mph87%30.01 "Hg10 mi
2:58 AM76 °FClear.5 mph89%30.01 "Hg10 mi
1:58 AM76 °FClear.8 mph90%30.00 "Hg10 mi
12:58 AM76 °FClear.6 mph92%30.02 "Hg10 mi
11:58 PM
Fri, Sep 30
76 °FClear.2 mph89%30.03 "Hg10 mi
10:58 PM77 °FPassing clouds.7 mph88%30.06 "Hg10 mi
9:58 PM78 °FClear.7 mph87%30.05 "Hg10 mi
8:58 PM77 °FThundershowers. Clear.2 mph86%30.02 "Hg10 mi
7:58 PM76 °FThunderstorms. Passing clouds.10 mph79%30.01 "Hg10 mi
7:02 PM84 °FThundershowers. Scattered clouds.16 mph74%29.97 "Hg10 mi
6:58 PM84 °FThundershowers. Scattered clouds.17 mph77%29.97 "Hg10 mi
Weather by CustomWeather, © 2016

See weather overviewHow to use our weather pages